User: anonymous   Login
Location: Oshawa
(43.9000°N, 78.8670°W)
Time: 14:56:21
(UTC-04:00)
Language:

Explorer 7 - Orbit

View from above orbital plane
View from above orbital plane
View from above satellite
View from above satellite

Ground track
Ground track

The orbit data is extracted from the following two-line orbital elements,

1 00022U 59009A   15241.01185434  .00001674  00000-0  15502-3 0  9990
2 00022 050.2841 042.5815 0146521 045.0302 316.2414 14.92479735962979
Epoch (UTC): 29 August 2015 00:17:04
Eccentricity: 0.0146521
inclination: 50.2841°
perigee height: 488 km
apogee height: 692 km
right ascension of ascending node: 42.5815°
argument of perigee: 45.0302°
revolutions per day: 14.92479735
mean anomaly at epoch: 316.2414°
orbit number at epoch: 96297

The dashed part of the orbit path shows where the satellite is in the earth's shadow,  

DLR